This is the latest recevied weather packets stored in our database for station/object KA7KDX-4. If no packets are shown the sender has not sent any weather packets the latest 10 day(s).
| Time | Temp. | Humidity | Pressure | Rain* | Wind** | Luminosity | Snow |
|---|---|---|---|---|---|---|---|
| 1777575605 | 13.89° C | 42% | 1015 hPa | 0 mm | - | - | - |
| 1777575305 | 13.33° C | 42% | 1015.2 hPa | 0 mm | - | - | - |
| 1777575005 | 13.33° C | 40% | 1015.3 hPa | 0 mm | - | - | - |
| 1777574706 | 13.33° C | 41% | 1015.3 hPa | 0 mm | - | - | - |
| 1777574406 | 13.33° C | 42% | 1015.4 hPa | 0 mm | - | - | - |
| 1777574106 | 13.33° C | 43% | 1015.6 hPa | 0 mm | - | - | - |
| 1777573806 | 13.33° C | 42% | 1015.6 hPa | 0 mm | - | - | - |
| 1777573506 | 13.33° C | 42% | 1015.7 hPa | 0 mm | - | - | - |
| 1777573206 | 13.33° C | 42% | 1015.7 hPa | 0 mm | - | - | - |
| 1777572905 | 13.33° C | 43% | 1015.7 hPa | 0 mm | - | - | - |
| 1777572605 | 12.78° C | 41% | 1015.9 hPa | 0 mm | - | - | - |
| 1777572305 | 13.33° C | 42% | 1015.9 hPa | 0 mm | - | - | - |
| 1777572005 | 12.78° C | 44% | 1015.9 hPa | 0 mm | - | - | - |
| 1777571706 | 13.33° C | 45% | 1015.8 hPa | 0 mm | - | - | - |
| 1777571406 | 13.33° C | 42% | 1015.9 hPa | 0 mm | - | - | - |
| 1777571106 | 12.78° C | 42% | 1015.9 hPa | 0 mm | - | - | - |
| 1777570806 | 12.78° C | 43% | 1016 hPa | 0 mm | - | - | - |
| 1777570506 | 12.78° C | 43% | 1016.1 hPa | 0 mm | - | - | - |
| 1777570205 | 12.78° C | 45% | 1016.1 hPa | 0 mm | - | - | - |
| 1777569905 | 12.78° C | 44% | 1016.1 hPa | 0 mm | - | - | - |
| 1777569605 | 12.78° C | 43% | 1016.2 hPa | 0 mm | - | - | - |
| 1777569305 | 12.78° C | 43% | 1016.2 hPa | 0 mm | - | - | - |
| 1777569006 | 12.22° C | 46% | 1016.3 hPa | 0 mm | - | - | - |
| 1777568706 | 12.22° C | 49% | 1016.4 hPa | 0 mm | - | - | - |
| 1777568406 | 12.22° C | 50% | 1016.4 hPa | 0 mm | - | - | - |
* Rain latest hour (hover to see other rain measurements)
** Current wind speed in m/s (hover to see current wind gust speed)